{"data":{"norad_id":39227,"intl_designator":"2013-042A","name":"ARIRANG-5 (KOMPSAT-5)","alt_names":[],"object_type":"PAYLOAD","status":"ACTIVE","operator":null,"country":"SKOR","launch_date":"2013-08-22","launch_site_code":"DLS","launch_vehicle":null,"mission":null,"orbit_class":"UNKNOWN","rcs_meters":3.4646,"size_class":null,"mass_kg":null,"dimensions":null,"purposes":["earth_obs"],"wikipedia_slug":null,"has_3d_model":false,"image_url":null,"decayed_at":null,"tle_current":{"epoch":"2026-09-20T03:21:49.417056Z","epoch_age_seconds":45420,"freshness":"FRESH","line1":"1 39227U 13042A   26263.14015529  .00001087  00000+0  82050-4 0  9993","line2":"2 39227  97.6203  88.5211 0003387 147.2172 212.9265 15.04474560718135","mean_motion":15.0447456,"eccentricity":0.0003387,"inclination_deg":97.6203,"raan_deg":88.5211,"arg_perigee_deg":147.2172,"mean_anomaly_deg":212.9265,"bstar":8.205e-5,"rev_number":71813,"period_min":95.714479877945,"perigee_km":550.7714305762,"apogee_km":555.46666342244,"semimajor_km":6931.2560469993,"source":"CELESTRAK","updated_at":"2026-09-20T09:00:33.895140Z"}}}